Regional Weather Roundup
Issued by NWS New Orleans/Baton Rouge, LA

Home | Current Version | Previous Version | Text Only | Print | Product List | Glossary On
Versions: 1 2 3 4 5 6 7 8 9 10 11 12 13 14 15 16 17 18 19 20 21 22 23 24 25 26 27
000
ASUS44 KLIX 230613
RWRLIX
NEW ORLEANS REGIONAL WEATHER ROUNDUP
NATIONAL WEATHER SERVICE NEW ORLEANS LA
100 AM CDT WED AUG 23 2017

NOTE: "FAIR" INDICATES FEW OR NO CLOUDS BELOW 12,000 FEET WITH NO
      SIGNIFICANT WEATHER AND/OR OBSTRUCTIONS TO VISIBILITY.
      SKY/WX - SKY CONDITION AND SIGNIFICANT WEATHER.
      TMP - AIR TEMPERATURE.     DP    - DEWPOINT TEMPERATURE.
      RH  - RELATIVE HUMIDITY.   PRES  - PRESSURE.
      HI  - HEAT INDEX.          WCI   - WIND CHILL INDEX.

*  THESE STATIONS ARE NOT NWS OR FAA STATIONS AND ARE NOT UNDER
   NWS QUALITY CONTROL.

LAZ038-040-048-061>063-065>067-069-230700-
SOUTHEAST LOUISIANA

CITY           SKY/WX    TMP DP  RH WIND       PRES   REMARKS
N.O. INTL ARPT MOCLDY    79  78  97 CALM      30.01R
6HR MIN TEMP:  78; 6HR MAX TEMP:  86;

N.O. LAKEFRONT CLOUDY    83  77  82 SW5       30.01R
6HR MIN TEMP:  82; 6HR MAX TEMP:  87;

N.O. DOWNTOWN*   N/A     83  77  82 CALM      30.01R
6HR MIN TEMP:  82; 6HR MAX TEMP:  87;

RESERVE*         N/A     77  74  91 CALM      30.01R
6HR MIN TEMP:  77; 6HR MAX TEMP:  85;

SLIDELL        MOCLDY    75  74  96 N5        30.00R
6HR MIN TEMP:  75; 6HR MAX TEMP:  84;

BATON ROUGE    CLEAR     73  72  96 CALM      30.02R
6HR MIN TEMP:  73; 6HR MAX TEMP:  76;

BOOTHVILLE     MOCLDY    83  79  88 CALM      29.99R
6HR MIN TEMP:  82; 6HR MAX TEMP:  86;

BELLE CHASSE   NOT AVBL
BOGALUSA*      NOT AVBL
GALLIANO*      MOCLDY    77  74  90 CALM      29.99R
6HR MIN TEMP:  76; 6HR MAX TEMP:  84;

NEW ROADS*       N/A     73  73  99 CALM      30.03R
6HR MIN TEMP:  73; 6HR MAX TEMP:  75;

GONZALES*        N/A     74  73  96 CALM      30.01R
6HR MIN TEMP:  73; 6HR MAX TEMP:  79;

HAMMOND*       CLEAR     75  72  88 NW3       30.02R
HOUMA*         NOT AVBL
PORT FOURCHON* MOCLDY    86  75  70 S3        29.98R HX  95

$$

MSZ070-080>082-230700-
SOUTHERN MISSISSIPPI

CITY           SKY/WX    TMP DP  RH WIND       PRES   REMARKS
MCCOMB         CLEAR     75  72  90 NW5       30.05R
6HR MIN TEMP:  75; 6HR MAX TEMP:  82;

GULFPORT       CLEAR     77  75  93 CALM      30.00R
6HR MIN TEMP:  76; 6HR MAX TEMP:  83;

BILOXI         PTCLDY    78  76  94 NE3       30.00R
6HR MIN TEMP:  78; 6HR MAX TEMP:  83;

PASCAGOULA     CLEAR     73  71  93 CALM      30.01R FOG
6HR MIN TEMP:  73; 6HR MAX TEMP:  83;


$$

COASTAL OBSERVATIONS
LAKE AND NEARSHORE STATIONS

STATION/POSITION TIME  TEMP    WIND        PRES    WAVE
                       AIR SEA DIR/SP/G            HT/PER
                 (UTC) (F)     (DEG/KT/KT) (MB)    (FT/S)
PASCAGOULA       0548           30/  4/  5 1015.6
WAVELAND YACHT   0536      86  340/  3/  3 1015.8
GRAND ISLE       0536      90  170/  3/  5 1015.4
SOUTHWEST PASS   0548          180/  9/ 12   N/A
NEW CANAL        0536      88  220/  2/  3 1015.8
SHELL BEACH      0536      89  190/  1/  2 1015.8

OFFSHORE STATIONS

STATION/POSITION TIME  TEMP    WIND        PRES    WAVE
                       AIR SEA DIR/SP/G            HT/PER
                 (UTC) (F)     (DEG/KT/KT) (MB)    (FT/S)
64 S DAUPHIN ISL 0550   85 87  140/  4/  6 1015.5    2/ 7

$$





USA.gov is the U.S. government's official web portal to all federal, state and local government web resources and services.